sat.trackr.live / text

‹ back to catalog

STARLINK-32453

NORAD 61671 · 2024-193L

PAYLOAD ACTIVE UNKNOWN

§ Identity

Operator
Country
US
Launch date
2024-10-26
Launch site
AFETR
Launch vehicle
Mass (kg)
RCS (m²)

Purposes: comms

External: N2YO · Heavens-Above · Gunter

§ Orbital elements

Epoch: 2026-09-21T17:22:28.760736Z

Period
94.01 min
Inclination
53.1593°
Eccentricity
0.0001393
Mean motion
15.31699998 rev/d
Perigee alt
469.8 km
Apogee alt
471.7 km
Semi-major
6,848.9 km
B*
1.1522e-5
RAAN
259.5083°
Arg perigee
82.7996°
Mean anomaly
277.3163°
Rev number
10,655

§ Raw data

STARLINK-324531 61671U 24193L   26264.72394399 -.00000008  00000+0  11522-4 0  99992 61671  53.1593 259.5083 0001393  82.7996 277.3163 15.31699998106554

JSON: /api/v1/satellites/61671 · /tle

For live sub-satellite position, see the globe view (requires WebGL).

§ Visibility from observer

Set your observer location to see the next 7 days of passes ≥ 10°. The values pass through the URL so the page stays shareable.

No JS? Fill the form by hand. The geolocation button needs JavaScript.